Tracking 18980 objects as of 19-Feb-2018
HD Live streaming from Space Station
objects crossing your sky now

FENGYUN 1C DEB

Track FENGYUN 1C DEB now!
10-day predictions


NORAD ID: 29870
Int'l Code: 1999-025FQ
Perigee: 718.6 km
Apogee: 892.2 km
Inclination: 98.5 °
Period: 100.8 minutes
Semi major axis: 7176 km
RCS: 0.068 m2 (small)
Launch date: May 10, 1999
Source: People's Republic of China (PRC)
Launch site: Taiyaun Space Center, China (TSC)

Note: This is SATELLITE DEBRIS
aabbcc
Your satellite tracking list
Your tracking list is empty




NASA's NSSDC Master Catalog

Two Line Element Set (TLE):
1 29870U 99025FQ  18050.62995653 -.00000022 +00000-0 +81644-5 0  9993
2 29870 098.4686 095.3632 0120943 325.3703 154.5785 14.28049972578662
Source of the keplerian elements: AFSPC